TimeCDT,TemperatureF,Dew PointF,Humidity,Sea Level PressureIn,VisibilityMPH,Wind Direction,Wind SpeedMPH,Gust SpeedMPH,PrecipitationIn,Events,Conditions,WindDirDegrees,DateUTC
12:51 AM,62.1,54.0,75,30.06,10.0,Calm,Calm,-,N/A,,Clear,0,2013-10-08 05:51:00
1:51 AM,61.0,54.0,78,30.05,10.0,WSW,4.6,-,N/A,,Clear,250,2013-10-08 06:51:00
2:51 AM,60.1,54.0,80,30.05,10.0,West,5.8,-,N/A,,Clear,260,2013-10-08 07:51:00
3:51 AM,59.0,54.0,83,30.04,10.0,NW,3.5,-,N/A,,Clear,310,2013-10-08 08:51:00
4:51 AM,57.9,53.1,84,30.04,10.0,WNW,5.8,-,N/A,,Clear,300,2013-10-08 09:51:00
5:51 AM,57.0,53.1,87,30.05,10.0,NW,5.8,-,N/A,,Clear,320,2013-10-08 10:51:00
6:51 AM,57.0,53.1,87,30.06,10.0,WNW,5.8,-,N/A,,Clear,300,2013-10-08 11:51:00
7:51 AM,57.2,53.6,88,30.06,10.0,NW,5.8,-,N/A,,Partly Cloudy,320,2013-10-08 12:51:00
8:51 AM,66.9,55.9,68,30.07,10.0,NNW,4.6,-,N/A,,Clear,340,2013-10-08 13:51:00
9:51 AM,73.0,55.9,55,30.09,10.0,NW,3.5,-,N/A,,Clear,320,2013-10-08 14:51:00
10:51 AM,78.8,55.4,44,30.08,10.0,NNE,4.6,-,N/A,,Partly Cloudy,20,2013-10-08 15:51:00
11:51 AM,80.6,51.8,37,30.08,10.0,Variable,3.5,-,N/A,,Partly Cloudy,0,2013-10-08 16:51:00
12:51 PM,82.9,48.9,31,30.06,10.0,SE,5.8,-,N/A,,Partly Cloudy,130,2013-10-08 17:51:00
1:51 PM,84.0,50.0,31,30.04,10.0,SE,4.6,-,N/A,,Partly Cloudy,130,2013-10-08 18:51:00
2:51 PM,84.0,54.0,35,30.01,10.0,East,8.1,16.1,N/A,,Partly Cloudy,80,2013-10-08 19:51:00
3:51 PM,84.9,55.0,36,30.00,10.0,East,10.4,16.1,N/A,,Partly Cloudy,100,2013-10-08 20:51:00
4:51 PM,84.0,55.9,38,29.99,10.0,ESE,11.5,-,N/A,,Partly Cloudy,120,2013-10-08 21:51:00
5:51 PM,82.0,54.0,38,29.98,10.0,SE,10.4,-,N/A,,Partly Cloudy,130,2013-10-08 22:51:00
6:51 PM,79.0,54.0,42,29.98,10.0,SE,6.9,-,N/A,,Clear,130,2013-10-08 23:51:00
7:51 PM,73.0,57.9,59,29.99,10.0,SE,6.9,-,N/A,,Clear,140,2013-10-09 00:51:00
8:51 PM,71.1,59.0,66,29.99,10.0,ESE,8.1,-,N/A,,Clear,120,2013-10-09 01:51:00
9:51 PM,70.0,57.9,65,30.00,10.0,ESE,4.6,-,N/A,,Clear,120,2013-10-09 02:51:00
10:51 PM,69.1,59.0,70,30.01,10.0,ESE,5.8,-,N/A,,Clear,120,2013-10-09 03:51:00
11:51 PM,68.0,60.1,76,30.00,10.0,ESE,4.6,-,N/A,,Clear,110,2013-10-09 04:51:00